Regional Weather Roundup
Issued by NWS

Home | Current Version | Previous Version | Text Only | Print | Product List | Glossary On
Versions: 1 2 3 4 5 6 7 8 9 10 11 12 13 14 15 16 17 18 19 20 21 22 23 24 25 26 27 28 29 30 31 32 33 34 35 36 37 38 39 40 41 42 43 44 45 46 47 48 49 50
000
ASUS43 KDTX 232101
RWRMI
MICHIGAN HOURLY REGIONAL WEATHER ROUNDUP
NATIONAL WEATHER SERVICE DETROIT/PONTIAC MI
400 PM EST MON JAN 23 2017

NOTE: "FAIR" INDICATES FEW OR NO CLOUDS BELOW 12,000 FEET WITH NO
SIGNIFICANT WEATHER AND/OR OBSTRUCTION TO VISIBILITY.

MIZ047>049-052>055-059>063-066>070-074>076-081>083-232200-
SOUTHEAST LOWER MICHIGAN

CITY           SKY/WX    TMP DP  RH WIND       PRES   REMARKS
ADRIAN         CLOUDY    43  43 100 NE8       29.65R
ALMA           LGT RAIN  39  39  99 N7        29.69S WCI  34
ANN ARBOR      CLOUDY    43  42  97 N7        29.64R
BAD AXE        CLOUDY    38  38 100 NE5       29.70S FOG     WCI  34
CARO           CLOUDY    39  38  99 NE5       29.68S FOG
DETROIT CITY   CLOUDY    43  42  97 N6        29.66R FOG
DETROIT        CLOUDY    44  42  93 NE7       29.65R FOG
FLINT          CLOUDY    41  39  93 NE8       29.67S FOG
GROSSE ILE     CLOUDY    43  41  94 N8        29.64R FOG
HILLSDALE      LGT RAIN  41  41 100 N5        29.63R
HOWELL         CLOUDY    40  40  97 NE5       29.65S FOG

CITY           SKY/WX    TMP DP  RH WIND       PRES   REMARKS
JACKSON        CLOUDY    42  40  92 N6        29.65R
LAMBERTVILLE   CLOUDY    45  42  91 NE3       29.64S FOG
LANSING        LGT RAIN  40  37  89 N6        29.68R
LAPEER         CLOUDY    39  39  99 N5        29.67S FOG
MASON          CLOUDY    40  40 100 N5        29.66S
MONROE         CLOUDY    44  43  96 NE3       29.63S FOG
MT. CLEMENS    CLOUDY    42  42 100 N8        29.64R FOG
PONTIAC        CLOUDY    42  39  89 N5        29.64R FOG
PORT HOPE        N/A     37  36  96 N7        29.69F WCI  32
PORT HURON     CLOUDY    39  39 100 N3        29.67R
TRI CITIES     CLOUDY    38  38 100 NE8       29.70R FOG     WCI  32
MIDLAND        DRIZZLE   39  38  97 NE3       29.70R
TROY           CLOUDY    42  40  93 N5        29.67R FOG
SAGINAW HB     CLOUDY    37  36  93 N7        29.69S FOG     WCI  32
$$
MIZ043>046-050>051-056>058-064>065-071>073-077>080-232200-
SOUTHWEST LOWER MICHIGAN

CITY           SKY/WX    TMP DP  RH WIND       PRES   REMARKS
BATTLE CREEK   CLOUDY    41  41 100 N9        29.67R FOG
BENTON HARBOR  CLOUDY    40  37  89 VRB6      29.71S
BIG RAPIDS     CLOUDY    39  38  98 N3        29.70R FOG
COLDWATER      LGT RAIN  41  41 100 N6        29.65R
FREMONT        CLOUDY    42  37  83 CALM      29.71R
HOLLAND        CLOUDY    41  37  86 NW8       29.71S
GRAND RAPIDS   DRIZZLE   41  39  93 NW7       29.69R
IONIA          CLOUDY    39  39  99 NW6       29.68R FOG     WCI  35
KALAMAZOO      FOG       41  39  93 NW10      29.68S VSB 3/4
LUDINGTON      CLOUDY    39  39 100 N8        29.72S WCI  33
MARSHALL       LGT RAIN  40  40  99 CALM      29.66R
MOUNT PLEASANT FOG       38  38  98 N6        29.70R VSB 1/4 WCI  34
MUSKEGON       CLOUDY    44  38  79 NW5       29.71S
SOUTH HAVEN    CLOUDY    39  38  97 N8        29.71S WCI  33
$$
MIZ016>042-232200-
NORTHERN LOWER MICHIGAN

CITY           SKY/WX    TMP DP  RH WIND       PRES   REMARKS
ALPENA         LGT RAIN  37  35  92 E6        29.75R FOG     WCI  32
BEAVER ISLAND  FOG       34  34 100 E5        29.75R VSB 3/4 WCI  30
BELLAIRE       CLOUDY    38  38 100 CALM      29.73R FOG
CADILLAC       CLOUDY    38  37  95 CALM      29.69S FOG
CHARLEVOIX     FOG       37  37 100 CALM      29.76R VSB 1
FRANKFORT      CLOUDY    40  39  98 CALM      29.73R FOG
GAYLORD        FOG       37  34  89 NE3       29.71R VSB 1/4
GRAYLING       FOG       37  37  99 NE3       29.71R VSB 3/4
HARBOR SPRINGS CLOUDY    36  36 100 NE5       29.74R FOG     WCI  32
HOUGHTON LAKE  CLOUDY    38  37  97 N3        29.70R FOG
MANISTEE       CLOUDY    39  39 100 NW5       29.72S
OSCODA         MIX PCPN  38  37  97 E3        29.72S
PELLSTON       CLOUDY    36  35  96 E6        29.75R FOG     WCI  31
ROGERS CITY    MIX PCPN  36  35  96 E6        29.76R VSB 1   WCI  31
TRAVERSE CITY  CLOUDY    40  38  93 CALM      29.71S FOG
$$
MIZ007>008-015-232200-
EASTERN UPPER MICHIGAN

CITY           SKY/WX    TMP DP  RH WIND       PRES   REMARKS
KINROSS        CLOUDY    34  33  96 E8        29.77R FOG     WCI  27
MACKINAC ISLAN FOG       34  34 100 E7        29.75S VSB 1/4 WCI  27
NEWBERRY       CLOUDY    33  32  96 NE3       29.76R FOG
S. S. MARIE    CLOUDY    36  34  92 CALM      29.77R
MUNISING         N/A     34  34 100 NE3       29.76R
$$
MIZ004>006-011>014-085-232200-
CENTRAL UPPER MICHIGAN

CITY           SKY/WX    TMP DP  RH WIND       PRES   REMARKS
MANISTIQUE     FOG       34  34  98 E5        29.76R VSB 3/4 WCI  30
ESCANABA       CLOUDY    38  37  97 N3        29.76R FOG
SAWYER-GWINN   CLOUDY    36  34  93 NE5       29.74R WCI  32
$$
MIZ001>003-009>011-084-232200-
WESTERN UPPER MICHIGAN

CITY           SKY/WX    TMP DP  RH WIND       PRES   REMARKS
IRON MOUNTAIN  CLOUDY    36  33  89 N6        29.72S WCI  31
HOUGHTON       CLOUDY    37  32  82 NW7       29.74R WCI  32
COPPER HARBOR    N/A     35  34  96 N9        29.76R WCI  28
IRONWOOD       FOG       36  35  96 CALM      29.75S VSB 1/4
$$

ABBREVIATIONS USED IN REMARKS
   TC - TEMPERATURE IN CELSIUS
  WCI - WIND CHILL INDEX
   HX - HEAT INDEX
  VSB - VISIBILITY





USA.gov is the U.S. government's official web portal to all federal, state and local government web resources and services.